#timestamp,LO_Frequency,Hit,StdDev 
1576530015.6,286047000.0,N
1576530035.4,286047000.3,N
1576530055.3,286046999.1,N
1576530075.1,286046998.9,N
1576530076.0,286046998.9,N
1576530095.8,286046996.5,N
1576530115.7,286046999.2,N
1576530135.5,286047002.6,N
1576530155.3,286046999.9,N
1576530175.2,286047000.9,N
1576530195.0,286046996.9,N
1576530195.9,286046996.9,N
1576530215.8,286046996.8,N
1576530235.6,286046996.5,N
1576530255.4,286046998.5,N
1576530275.3,286047000.4,N
1576530295.1,286047000.4,N
1576530315.8,286046999.9,N
1576530335.7,286046998.2,N
1576530355.5,286047000.9,N
1576530375.4,286046999.4,N
1576530395.2,286046997.0,N
1576530415.0,286046996.7,N
1576530415.9,286046996.7,N
1576530435.8,286046996.7,N
1576530455.6,286046997.2,N
1576530475.5,286046999.6,N
1576530495.3,286046999.5,N
1576530515.1,286046999.4,N
1576530535.9,286046996.7,N
1576530555.7,286046997.8,N
1576530575.5,286046997.6,N
1576530595.4,286046997.0,N
1576530615.2,286046996.9,N
1576530635.1,286046998.0,N
1576530636.0,286046998.0,N
1576530655.8,286046995.5,N
1576530675.6,286046996.1,N
1576530695.5,286046993.5,Y
1576530715.3,286046995.7,P
1576530735.2,286046994.2,P
1576530755.9,286046997.9,N
1576530775.7,286046994.9,Y
1576530795.6,286046998.2,P
1576530815.4,286046998.5,N
1576530835.2,286046996.6,P
1576530855.1,286046998.2,N
1576530856.0,286046998.2,N
1576530875.8,286046999.3,N
1576530895.7,286046999.3,N
1576530915.5,286046999.6,N
1576530935.3,286046998.3,N
1576530955.2,286047000.4,N
1576530975.0,286047000.1,N
1576530975.9,286047000.1,N
1576530995.8,286047000.8,N
1576531015.6,286047000.7,N
1576531035.4,286046999.1,N
1576531055.3,286046999.0,N
1576531075.1,286046997.8,N
1576531095.8,286046997.0,N
1576531115.7,286046997.3,N
1576531135.5,286046996.8,N
1576531155.4,286046997.9,N
1576531175.2,286046996.2,N
1576531195.0,286046995.6,Y
1576531195.9,286046995.6,P
1576531215.8,286046998.9,N
1576531235.6,286046999.0,N
1576531255.5,286047001.2,N
1576531275.3,286046998.5,N
1576531295.1,286046998.2,N
1576531315.9,286047000.7,N
1576531335.7,286047000.7,N
1576531355.5,286046998.6,N
1576531375.4,286046998.2,N
1576531395.2,286046998.4,N
1576531415.1,286046998.5,N
1576531416.0,286046998.5,N
1576531435.8,286047001.2,N
1576531455.6,286046998.5,N
1576531475.5,286047000.5,N
1576531495.3,286047001.3,N
1576531515.2,286047002.4,N
1576531535.9,286047002.0,N
1576531555.7,286047001.9,N
1576531575.6,286047004.4,N
1576531595.4,286047004.4,N
1576531615.2,286046999.8,N
1576531635.1,286047000.2,N
1576531636.0,286047000.2,N
1576531655.8,286047000.3,N
1576531675.7,286047000.9,N
1576531695.5,286046999.8,N
1576531715.3,286047002.0,N
1576531735.2,286047002.2,N
1576531755.0,286047002.0,N
1576531755.9,286047002.0,N
1576531775.8,286047004.3,N
1576531795.6,286047004.2,N
1576531815.4,286047004.0,N
1576531835.3,286047003.3,N
1576531855.1,286047005.9,Y
1576531875.9,286047002.0,P
1576531895.7,286047002.7,P
1576531915.5,286047001.7,N
1576531935.4,286047002.8,Y
1576531955.2,286046998.1,P
1576531975.0,286047001.1,N
1576531976.0,286047001.1,N
1576531995.8,286047000.4,N
1576532015.6,286047002.7,N
1576532035.5,286047001.9,N
1576532055.3,286047001.5,N
1576532075.1,286047000.0,N
1576532095.9,286047002.6,N
1576532115.7,286047002.5,N
1576532135.6,286047001.4,N
1576532155.4,286047001.9,N
1576532175.2,286047002.5,N
1576532195.1,286047000.5,N
1576532196.0,286047000.5,N
1576532215.8,286046998.5,N
1576532235.6,286046999.0,N
1576532255.5,286046998.5,N
1576532275.3,286047000.5,N
1576532295.2,286047004.0,N
1576532315.9,286047002.2,N
1576532335.7,286047001.0,N
1576532355.6,286047000.0,N
1576532375.4,286047001.7,N
1576532395.2,286047002.2,N
1576532415.1,286047004.1,N
1576532416.0,286047004.1,N
1576532435.8,286047002.4,N
1576532455.7,286047002.4,N
1576532475.5,286047002.8,N
1576532495.3,286047000.1,N
1576532515.2,286047002.4,N
1576532535.9,286047000.9,N
1576532555.7,286047000.0,N
1576532575.6,286047000.2,N
1576532595.4,286046998.5,N
1576532615.3,286046996.6,N
1576532635.1,286046999.2,N
1576532636.0,286046999.2,N
1576532655.8,286046999.4,N
1576532675.7,286047000.4,N
1576532695.5,286047000.9,N
1576532715.3,286047002.6,N
1576532735.2,286046999.7,N
1576532755.0,286047001.6,N
1576532755.9,286047001.6,N
1576532775.8,286047002.7,N
1576532795.6,286047002.5,N
1576532815.4,286046999.7,N
1576532835.3,286047002.6,N
1576532855.1,286047004.1,N
1576532875.8,286047004.5,N
1576532895.7,286047005.7,Y
1576532915.5,286047004.2,P
1576532935.4,286047003.4,N
1576532955.2,286047002.2,N
1576532975.0,286047002.6,N
1576532975.9,286047002.6,N
1576532995.8,286047002.7,N
1576533015.6,286047001.1,N
1576533035.4,286046999.0,N
1576533055.3,286047001.0,N
1576533075.1,286047000.2,N
1576533095.9,286047001.1,N
1576533115.7,286047000.7,N
1576533135.5,286047000.1,N
1576533155.4,286047001.2,N
1576533175.2,286047000.3,N
1576533195.0,286047000.3,N
1576533195.9,286047000.3,N
1576533215.8,286047001.0,N
1576533235.6,286047000.3,N
1576533255.5,286047004.4,Y
1576533275.3,286046999.8,P
1576533295.1,286047002.8,P
1576533315.9,286047002.0,N
1576533335.7,286047002.3,N
1576533355.5,286046998.1,N
1576533375.4,286046998.4,N
1576533395.2,286046998.9,N
1576533415.1,286046998.3,N
1576533416.0,286046998.3,N
1576533435.8,286046999.5,N
1576533455.6,286046997.7,N
1576533475.5,286046996.7,N
1576533495.3,286046997.6,N
1576533515.1,286046995.2,N
1576533535.9,286046995.8,N
1576533555.7,286046997.2,N
1576533575.6,286046995.0,N
1576533595.4,286046997.6,N
